Regional Weather Roundup
Issued by NWS Northern Indiana

Home | Current Version | Previous Version | Text Only | Print | Product List | Glossary On
Versions: 1 2 3 4 5 6 7 8 9 10 11 12 13 14 15 16 17 18 19 20 21 22 23 24 25 26 27 28 29 30 31 32 33 34 35 36 37 38 39 40 41 42 43 44 45 46 47 48 49 50
000
ASUS43 KIWX 030810
RWRIWX

KIWX WEATHER ROUNDUP
NATIONAL WEATHER SERVICE NORTHERN INDIANA
400 AM EDT THU SEP 03 2015

NOTE: "FAIR" INDICATES FEW OR NO CLOUDS BELOW 12,000 FEET WITH NO
SIGNIFICANT WEATHER AND/OR OBSTRUCTIONS TO VISIBILITY.

* THESE STATIONS ARE NOT UNDER NWS QUALITY CONTROL. THEY ALSO MAY NOT
  REPORT WEATHER SUCH AS PRECIPITATION OR FOG.

INZ001>027-030900-
NORTHERN INDIANA

CITY           SKY/WX    TMP DP  RH WIND       PRES   REMARKS
GARY*          MOCLDY    77  67  70 SW5       29.96F
VALPARAISO     PTCLDY    72  68  87 SW3       29.98F
MICHIGAN CITY* MOCLDY    72  66  83 S6        29.97S
LAPORTE*       PTCLDY   N/A N/A N/A SW3       29.99S
KNOX*          PTCLDY    70  70 100 SW5       29.97S
SOUTH BEND     PTCLDY    72  68  87 S8        29.98S
GOSHEN         PTCLDY    72  68  87 SW6       29.98F
MONTICELLO*    PTCLDY    72  70  95 S5        29.99S
LOGANSPORT*    CLEAR     68  63  83 CALM      30.01S
ROCHESTER*     PTCLDY    75  70  83 SW6       30.00S
WARSAW*        PTCLDY    72  68  88 CALM      29.99S
ANGOLA*          N/A     70  61  73 CALM      30.00S VSB 3/4
FORT WAYNE     PTCLDY    70  67  90 S5        30.00S
HUNTINGTON*    PTCLDY    69  65  88 CALM      30.00S
PERU/GRISSOM   CLEAR     70  67  88 SW5       29.99S
MARION*        PTCLDY    67  61  81 CALM      30.01S

$$
INZ028>050-030900-
CENTRAL INDIANA

CITY           SKY/WX    TMP DP  RH WIND       PRES   REMARKS
LAFAYETTE      PTCLDY    69  67  93 CALM      29.99S
KOKOMO*        CLEAR     70  64  83 SW6       30.01S
MUNCIE*        PTCLDY    68  66  93 SW6       30.01S
INDIANAPOLIS   PTCLDY    71  67  87 CALM      30.01R

$$
MIZ043>046-050>051-056>058-064>065-071>073-077>080-030900-
SOUTHWEST LOWER MICHIGAN

CITY           SKY/WX    TMP DP  RH WIND       PRES   REMARKS
BATTLE CREEK   CLEAR     72  68  87 S5        29.99S
BENTON HARBOR  PTCLDY    70  68  93 CALM      29.96S FOG
COLDWATER*     CLEAR     71  67  87 CALM      29.99S
HILLSDALE*     PTCLDY    68  68 100 CALM      30.00F FOG
HOLLAND        PTCLDY    69  66  90 CALM      29.96S
GRAND RAPIDS   PTCLDY    71  69  93 SE3       29.96S FOG
KALAMAZOO      CLEAR     70  67  90 S3        29.98S
STURGIS*       PTCLDY    70  66  88 CALM      29.98S
THREE RIVERS*  FAIR      69  68  95 CALM      29.98S FOG

$$
OHZ001>008-015>018-024>025-030900-
NORTHWEST OHIO

CITY           SKY/WX    TMP DP  RH WIND       PRES   REMARKS
WAUSEON*       FAIR      72  72 100 CALM      29.99R
DEFIANCE       MOCLDY    71  66  84 CALM      29.99S
FINDLAY        MOCLDY    68  65  90 SW5       29.99R
TOLEDO EXPRESS CLOUDY    73  68  84 W5        29.98R
TOLEDO METCALF CLOUDY    73  68  84 SW6       29.99R
LIMA           PTCLDY    69  66  90 CALM      30.01R

$$
AND FOR LAKE MICHIGAN COASTAL AND OPEN LAKE BUOY OBSERVATIONS

STATION/POSITION TEMP    WIND        PRES    VSBY  WAVE
                 AIR SEA DIR/SP/G                  HT/PER
                 (F)     (DEG/KT/KT) (MB)    (MI)  (FT/S)
CALUMET HARBOR    77     210/  4/  6   N/A
MICHIGAN CITY     76     180/  9/ 11   N/A
BURNS HARBOR      76     190/  9/ 11 1014.9F
SAINT JOSEPH      77     170/  7/ 10 1014.6F
SOUTH LAKE BUOY   74 71  200/  8/  8 1013.2S         0
4 MI NW BRIDGMAN  75 74  240/  6/  8   N/A           1
MICHIGAN CITY     75 73  230/  8/ 10   N/A           1

$$
&&



USA.gov is the U.S. government's official web portal to all federal, state and local government web resources and services.